MXS YSSY-YSBK

Flight info

Callsign MXS
Flight time 0h -5m
Altitude 1500
Route YSSY/25
Aircraft MXS/L-G/C

Departure

Time 2026-04-24 13:50
Airport Sydney Kingsford Smith International Airport (YSSY)

Arrival

Time 2026-04-24 13:45
Airport Sydney Bankstown Airport (YSBK)
Time Latitude Longitude Altitude Speed Heading
2026-04-24 13:44 -33.93645 151.18951 19 ft 9 kts 260°
2026-04-24 13:45 -33.93647 151.18945 19 ft 1 kts 22°
2026-04-24 13:45 -33.93649 151.18949 19 ft 0 kts 164°
2026-04-24 13:45 -33.93651 151.18950 19 ft 0 kts 173°
2026-04-24 13:45 -33.93652 151.18950 18 ft 1 kts 184°
2026-04-24 13:46 -33.93655 151.18949 18 ft 0 kts 205°
2026-04-24 13:47 -33.93692 151.18954 18 ft 13 kts 168°
2026-04-24 13:48 -33.93767 151.18939 20 ft 10 kts 249°
2026-04-24 13:48 -33.93781 151.18873 20 ft 10 kts 256°
2026-04-24 13:48 -33.93796 151.18808 19 ft 6 kts 254°
2026-04-24 13:48 -33.93802 151.18780 19 ft 0 kts 253°
2026-04-24 13:49 -33.93853 151.18477 49 ft 83 kts 262°
2026-04-24 13:49 -33.94033 151.17733 48 ft 98 kts 270°
2026-04-24 13:50 -33.94181 151.16924 542 ft 94 kts 259°
2026-04-24 13:50 -33.94207 151.15979 1124 ft 123 kts 290°
2026-04-24 13:50 -33.93867 151.14937 1491 ft 158 kts 282°
2026-04-24 13:50 -33.93683 151.13464 1509 ft 193 kts 278°
2026-04-24 13:51 -33.93528 151.11792 1508 ft 207 kts 277°
2026-04-24 13:51 -33.93389 151.10038 1508 ft 213 kts 277°
2026-04-24 13:51 -33.93231 151.08263 1507 ft 214 kts 277°
2026-04-24 13:51 -33.93080 151.06479 1504 ft 215 kts 276°
2026-04-24 13:52 -33.92970 151.04686 1419 ft 218 kts 268°
2026-04-24 13:52 -33.93148 151.02813 787 ft 219 kts 265°
2026-04-24 13:52 -33.93083 151.01419 413 ft 135 kts 278°
2026-04-24 13:52 -33.92904 151.00417 209 ft 116 kts 290°
2026-04-24 13:53 -33.92446 150.99479 547 ft 145 kts 306°
2026-04-24 13:53 -33.91771 150.98457 863 ft 165 kts 318°
2026-04-24 13:53 -33.90913 150.98894 1124 ft 164 kts 69°
2026-04-24 13:53 -33.91125 151.00268 984 ft 179 kts 118°
2026-04-24 13:54 -33.91785 151.01442 852 ft 170 kts 196°
2026-04-24 13:54 -33.92608 151.01214 532 ft 83 kts 216°
2026-04-24 13:54 -33.92901 151.00498 259 ft 114 kts 272°
2026-04-24 13:54 -33.92646 150.99767 54 ft 77 kts 300°
2026-04-24 13:55 -33.92397 150.99345 31 ft 49 kts 309°
2026-04-24 13:55 -33.92070 150.98746 52 ft 133 kts 302°
2026-04-24 13:55 -33.91622 150.99115 825 ft 119 kts 108°
2026-04-24 13:55 -33.91921 151.00244 915 ft 112 kts 118°
2026-04-24 13:56 -33.92423 151.00266 385 ft 72 kts 196°
2026-04-24 13:56 -33.92623 150.99819 105 ft 58 kts 265°
2026-04-24 13:56 -33.92467 150.99473 31 ft 35 kts 297°
2026-04-24 13:56 -33.92372 150.99288 30 ft 20 kts 309°
2026-04-24 13:57 -33.92259 150.99245 30 ft 16 kts 322°
2026-04-24 13:57 -33.92189 150.99127 30 ft 23 kts 303°
2026-04-24 13:57 -33.92081 150.99053 30 ft 18 kts 34°
2026-04-24 13:57 -33.92009 150.99231 30 ft 28 kts 73°
2026-04-24 13:58 -33.91892 150.99327 30 ft 19 kts 290°
2026-04-24 13:58 -33.91891 150.99312 30 ft 10 kts 199°
2026-04-24 13:58 -33.91942 150.99330 30 ft 3 kts 125°
2026-04-24 13:58 -33.91935 150.99344 30 ft 7 kts 355°
2026-04-24 13:59 -33.91895 150.99336 30 ft 0 kts 282°